LiveATC.Net - Listen to live air traffic control over the Internet! Contact LiveATC.net for advertising information


ICAO: LFBZ  IATA: BIQ   Airport: Anglet Airport
City: Biarritz
Country: France   Continent: Europe
LFBZ METAR Weather: LFBZ 271100Z AUTO VRB07KT 9999 FEW043 BKN058 18/12 Q1024
LFBZ Flight Activity (FlightAware)
LFBZ Gnd/Tower/App
Feed Status: DOWN
Last heard on: 2015-05-10 08:03:03 (17 days 3 hours 56 minutes ago)
FacilityFrequency
Biarritz Approach125.600
Biarritz Ground121.950
Biarritz Info119.175
Biarritz Tower118.700

Sponsored by: USA Pictures

NOTICE

Unauthorized use prohibited. See LiveATC.net Terms of Service


Find LiveATC Audio Streams


Airport/ARTCC Code

Frequency
(e.g., 124.400, 128.75)
Site-wide search

Browse LiveATC Feeds
LiveATC Coverage Map
Top 50 LiveATC Feeds
Bad Weather Areas

LiveATC FAQ
Offer a LiveATC Feed
Contact LiveATC.net
Press Inquiries

LiveATC on iPhone
LiveATC on Android

LiveATC Mobile
(Mobile browser)

ATC Audio Archives
Interesting Recordings

LiveATC Forums


Home Page
About LiveATC.net
Make a Donation
LiveATC Bookstore

Terms of Use
Privacy Policy

ATC/Radar Sites
U.S. ARTCC Freqs
Canadian Air Freqs

AIRMETs/SIGMETs

FAA Airport Status
Nat'l Airspace Status
Arrival Demand Charts


Server Software By:
Icecast.org
Liquidsoap

Please make a donation to help us keep growing!